| time (UTC) | temp F | wind direction | speed knots | gust knots | rain 1hr in | rain 24hr in | rain mn in | humidity % | barometer mb |
| 20260503070407 | 58 | 198 | 0.0 | 2.6 | 0.00 | 0.00 | 0.00 | 50 | 1009.3 |
| 20260503060232 | 58 | 217 | 0.0 | 0.0 | 0.00 | 0.00 | 0.00 | 51 | 1009.1 |
| 20260503054707 | 59 | 217 | 0.0 | 2.6 | 0.00 | 0.00 | 0.00 | 51 | 1009.1 |
| 20260503053701 | 59 | 217 | 0.9 | 3.5 | 0.00 | 0.00 | 0.00 | 52 | 1009.1 |
| 20260503053147 | 59 | 217 | 0.9 | 3.5 | 0.00 | 0.00 | 0.00 | 52 | 1009.2 |
| 20260503052647 | 59 | 217 | 0.0 | 3.5 | 0.00 | 0.00 | 0.00 | 52 | 1009.2 |
| 20260503052141 | 59 | 217 | 0.0 | 0.9 | 0.00 | 0.00 | 0.00 | 52 | 1009.3 |
| 20260503051630 | 59 | 217 | 0.0 | 0.0 | 0.00 | 0.00 | 0.00 | 52 | 1009.2 |
| 20260503051128 | 59 | 217 | 0.0 | 0.0 | 0.00 | 0.00 | 0.00 | 53 | 1009.3 |
| 20260503050610 | 59 | 217 | 0.0 | 0.0 | 0.00 | 0.00 | 0.00 | 51 | 1009.3 |
| 20260503045600 | 59 | 217 | 0.0 | 0.0 | 0.00 | 0.00 | 0.00 | 52 | 1009.1 |
| 20260503045054 | 59 | 217 | 0.0 | 0.0 | 0.00 | 0.00 | 0.00 | 53 | 1009.2 |
| 20260503044513 | 59 | 217 | 0.0 | 0.0 | 0.00 | 0.00 | 0.00 | 53 | 1009.2 |
| 20260503044011 | 59 | 217 | 0.0 | 0.0 | 0.00 | 0.00 | 0.00 | 53 | 1009.2 |
| 20260503042438 | 60 | 217 | 0.0 | 0.0 | 0.00 | 0.00 | 0.00 | 51 | 1009.2 |
| 20260503041927 | 60 | 217 | 0.0 | 0.0 | 0.00 | 0.00 | 0.00 | 51 | 1009.0 |
| 20260503041422 | 60 | 217 | 0.0 | 0.0 | 0.00 | 0.00 | 0.00 | 51 | 1009.1 |
| 20260503040922 | 60 | 217 | 0.0 | 0.0 | 0.00 | 0.00 | 0.00 | 51 | 1009.0 |
| 20260503040403 | 60 | 217 | 0.0 | 0.0 | 0.00 | 0.00 | 0.00 | 50 | 1009.0 |
| 20260503035332 | 60 | 217 | 0.0 | 0.0 | 0.00 | 0.00 | 0.00 | 50 | 1008.9 |
| 20260503034824 | 60 | 217 | 0.0 | 0.0 | 0.00 | 0.00 | 0.00 | 51 | 1009.0 |
| 20260503033812 | 60 | 217 | 0.9 | 3.5 | 0.00 | 0.00 | 0.00 | 50 | 1009.0 |
| 20260503032805 | 60 | 217 | 0.0 | 3.5 | 0.00 | 0.00 | 0.00 | 52 | 1008.9 |
| 20260503032304 | 60 | 217 | 0.0 | 0.0 | 0.00 | 0.00 | 0.00 | 53 | 1008.7 |
| 20260503031747 | 60 | 217 | 0.0 | 0.0 | 0.00 | 0.00 | 0.00 | 53 | 1008.6 |
| 20260503031242 | 61 | 217 | 0.0 | 0.0 | 0.00 | 0.00 | 0.00 | 54 | 1008.5 |
| 20260503030732 | 61 | 217 | 0.0 | 0.0 | 0.00 | 0.00 | 0.00 | 53 | 1008.5 |
| 20260503030226 | 61 | 217 | 0.0 | 0.0 | 0.00 | 0.00 | 0.00 | 53 | 1008.6 |
| 20260503025727 | 62 | 217 | 0.0 | 0.0 | 0.00 | 0.00 | 0.00 | 52 | 1008.6 |
| 20260503025211 | 62 | 217 | 0.0 | 0.0 | 0.00 | 0.00 | 0.00 | 54 | 1008.6 |
| 20260503024656 | 62 | 217 | 0.0 | 0.0 | 0.00 | 0.00 | 0.00 | 54 | 1008.6 |
| 20260503024156 | 62 | 217 | 0.0 | 0.0 | 0.00 | 0.00 | 0.00 | 54 | 1008.7 |
| 20260503023650 | 63 | 217 | 0.0 | 0.0 | 0.00 | 0.00 | 0.00 | 54 | 1008.5 |
| 20260503023144 | 63 | 217 | 0.0 | 0.0 | 0.00 | 0.00 | 0.00 | 54 | 1008.5 |
| 20260503022632 | 63 | 217 | 0.0 | 0.0 | 0.00 | 0.00 | 0.00 | 55 | 1008.5 |
| 20260503022128 | 64 | 217 | 0.0 | 0.0 | 0.00 | 0.00 | 0.00 | 54 | 1008.5 |
| 20260503021607 | 64 | 217 | 0.0 | 0.0 | 0.00 | 0.00 | 0.00 | 53 | 1008.4 |
| 20260503021106 | 64 | 217 | 0.0 | 0.0 | 0.00 | 0.00 | 0.00 | 51 | 1008.4 |
| 20260503020603 | 65 | 217 | 0.0 | 0.0 | 0.00 | 0.00 | 0.00 | 50 | 1008.4 |
| 20260503020106 | 65 | 217 | 0.0 | 0.0 | 0.00 | 0.00 | 0.00 | 51 | 1008.5 |
| 20260503015555 | 66 | 217 | 0.0 | 0.0 | 0.00 | 0.00 | 0.00 | 52 | 1008.6 |
| 20260503015041 | 67 | 217 | 0.0 | 0.0 | 0.00 | 0.00 | 0.00 | 51 | 1008.6 |
| 20260503014024 | 68 | 217 | 0.0 | 0.0 | 0.00 | 0.00 | 0.00 | 49 | 1008.7 |
| 20260503013518 | 69 | 217 | 0.0 | 0.0 | 0.00 | 0.00 | 0.00 | 44 | 1008.5 |
| 20260503013015 | 69 | 217 | 0.0 | 0.0 | 0.00 | 0.00 | 0.00 | 42 | 1008.5 |
| 20260503012508 | 69 | 217 | 0.0 | 0.0 | 0.00 | 0.00 | 0.00 | 43 | 1008.4 |
| 20260503011959 | 69 | 217 | 0.0 | 0.0 | 0.00 | 0.00 | 0.00 | 42 | 1008.3 |
| 20260503011450 | 70 | 217 | 0.0 | 0.0 | 0.00 | 0.00 | 0.00 | 42 | 1008.3 |
| 20260503010940 | 70 | 217 | 0.0 | 2.6 | 0.00 | 0.00 | 0.00 | 41 | 1008.5 |
| 20260503005911 | 71 | 217 | 1.7 | 4.3 | 0.00 | 0.00 | 0.00 | 34 | 1008.5 |
| 20260503005408 | 72 | 217 | 0.9 | 4.3 | 0.00 | 0.00 | 0.00 | 32 | 1008.5 |
| 20260503004401 | 73 | 234 | 0.9 | 4.3 | 0.00 | 0.00 | 0.00 | 32 | 1008.6 |
| 20260503003827 | 73 | 235 | 1.7 | 4.3 | 0.00 | 0.00 | 0.00 | 32 | 1008.6 |
| 20260503003319 | 73 | 226 | 1.7 | 3.5 | 0.00 | 0.00 | 0.00 | 32 | 1008.7 |
| 20260503002804 | 73 | 227 | 0.9 | 3.5 | 0.00 | 0.00 | 0.00 | 32 | 1008.8 |
| 20260503002253 | 73 | 244 | 0.0 | 3.5 | 0.00 | 0.00 | 0.00 | 32 | 1008.8 |
| 20260503001744 | 73 | 225 | 0.9 | 4.3 | 0.00 | 0.00 | 0.00 | 32 | 1008.9 |
| 20260503001214 | 74 | 227 | 0.9 | 6.1 | 0.00 | 0.00 | 0.00 | 33 | 1008.8 |
| 20260503000215 | 73 | 269 | 0.9 | 4.3 | 0.00 | 0.00 | 0.00 | 32 | 1008.7 |
| 20260502235711 | 73 | 180 | 0.9 | 4.3 | 0.00 | 0.00 | 0.00 | 30 | 1008.7 |
| 20260502235158 | 74 | 121 | 0.9 | 3.5 | 0.00 | 0.00 | 0.00 | 34 | 1008.8 |
| 20260502234648 | 74 | 134 | 0.9 | 4.3 | 0.00 | 0.00 | 0.00 | 31 | 1008.7 |
| 20260502234139 | 74 | 253 | 0.9 | 5.2 | 0.00 | 0.00 | 0.00 | 31 | 1008.6 |
| 20260502233623 | 74 | 221 | 0.0 | 5.2 | 0.00 | 0.00 | 0.00 | 32 | 1008.7 |
| 20260502233113 | 74 | 273 | 0.0 | 2.6 | 0.00 | 0.00 | 0.00 | 31 | 1008.9 |
| 20260502232605 | 74 | 183 | 0.9 | 6.1 | 0.00 | 0.00 | 0.00 | 33 | 1008.9 |
| 20260502232105 | 74 | 182 | 0.9 | 6.1 | 0.00 | 0.00 | 0.00 | 31 | 1008.9 |
| 20260502231559 | 74 | 209 | 0.9 | 5.2 | 0.00 | 0.00 | 0.00 | 31 | 1009.0 |
| 20260502231043 | 74 | 228 | 0.9 | 5.2 | 0.00 | 0.00 | 0.00 | 31 | 1009.0 |
| 20260502230531 | 74 | 269 | 1.7 | 5.2 | 0.00 | 0.00 | 0.00 | 31 | 1009.1 |
| 20260502230023 | 74 | 191 | 0.9 | 4.3 | 0.00 | 0.00 | 0.00 | 32 | 1009.0 |
| 20260502225507 | 75 | 248 | 0.0 | 3.5 | 0.00 | 0.00 | 0.00 | 35 | 1009.2 |
| 20260502225007 | 74 | 275 | 0.0 | 6.1 | 0.00 | 0.00 | 0.00 | 36 | 1009.4 |
| 20260502224500 | 74 | 284 | 0.0 | 6.1 | 0.00 | 0.00 | 0.00 | 34 | 1009.3 |
| 20260502223958 | 73 | 49 | 0.0 | 3.5 | 0.00 | 0.00 | 0.00 | 32 | 1009.5 |
| 20260502223421 | 73 | 58 | 0.9 | 4.3 | 0.00 | 0.00 | 0.00 | 33 | 1009.7 |
| 20260502222916 | 73 | 76 | 0.9 | 4.3 | 0.00 | 0.00 | 0.00 | 29 | 1009.6 |
| 20260502222406 | 74 | 38 | 0.9 | 6.1 | 0.00 | 0.00 | 0.00 | 30 | 1009.7 |
| 20260502221903 | 74 | 38 | 0.9 | 6.1 | 0.00 | 0.00 | 0.00 | 31 | 1009.9 |
| 20260502221345 | 74 | 165 | 0.9 | 3.5 | 0.00 | 0.00 | 0.00 | 31 | 1009.8 |
| 20260502220333 | 74 | 171 | 1.7 | 6.1 | 0.00 | 0.00 | 0.00 | 33 | 1009.9 |
| 20260502215824 | 73 | 169 | 1.7 | 4.3 | 0.00 | 0.00 | 0.00 | 37 | 1010.2 |
| 20260502215314 | 73 | 178 | 1.7 | 6.1 | 0.00 | 0.00 | 0.00 | 36 | 1010.0 |
| 20260502214250 | 73 | 172 | 1.7 | 6.1 | 0.00 | 0.00 | 0.00 | 37 | 1010.0 |
| 20260502213739 | 73 | 180 | 1.7 | 6.1 | 0.00 | 0.00 | 0.00 | 34 | 1010.0 |
| 20260502213237 | 73 | 185 | 2.6 | 6.1 | 0.00 | 0.00 | 0.00 | 34 | 1010.1 |
| 20260502212726 | 73 | 186 | 1.7 | 6.1 | 0.00 | 0.00 | 0.00 | 34 | 1010.2 |
| 20260502212215 | 73 | 223 | 0.9 | 6.1 | 0.00 | 0.00 | 0.00 | 37 | 1010.3 |
| 20260502211712 | 73 | 176 | 0.9 | 6.1 | 0.00 | 0.00 | 0.00 | 35 | 1010.3 |
| 20260502211212 | 73 | 192 | 0.9 | 6.1 | 0.00 | 0.00 | 0.00 | 35 | 1010.3 |
| 20260502210706 | 73 | 193 | 0.9 | 6.1 | 0.00 | 0.00 | 0.00 | 33 | 1010.3 |
| 20260502210159 | 73 | 194 | 1.7 | 5.2 | 0.00 | 0.00 | 0.00 | 36 | 1010.2 |
| 20260502205650 | 73 | 207 | 1.7 | 6.1 | 0.00 | 0.00 | 0.00 | 37 | 1010.3 |
| 20260502205141 | 73 | 210 | 2.6 | 6.1 | 0.00 | 0.00 | 0.00 | 36 | 1010.3 |
| 20260502204116 | 73 | 138 | 1.7 | 6.1 | 0.00 | 0.00 | 0.00 | 33 | 1010.4 |
| 20260502203052 | 73 | 177 | 3.5 | 9.6 | 0.00 | 0.00 | 0.00 | 36 | 1010.4 |
| 20260502202541 | 74 | 190 | 3.5 | 8.7 | 0.00 | 0.00 | 0.00 | 35 | 1010.5 |
| 20260502202040 | 74 | 169 | 3.5 | 10.4 | 0.00 | 0.00 | 0.00 | 39 | 1010.6 |
| 20260502201533 | 73 | 174 | 2.6 | 9.6 | 0.00 | 0.00 | 0.00 | 36 | 1010.6 |
| 20260502201027 | 73 | 158 | 2.6 | 9.6 | 0.00 | 0.00 | 0.00 | 36 | 1010.7 |
| 20260502200526 | 73 | 207 | 2.6 | 6.1 | 0.00 | 0.00 | 0.00 | 35 | 1010.6 |
| 20260502200021 | 73 | 108 | 2.6 | 7.8 | 0.00 | 0.00 | 0.00 | 35 | 1010.6 |
| 20260502195518 | 73 | 209 | 3.5 | 7.8 | 0.00 | 0.00 | 0.00 | 37 | 1010.6 |
| 20260502194518 | 72 | 168 | 5.2 | 10.4 | 0.00 | 0.00 | 0.00 | 37 | 1010.7 |
| 20260502193530 | 71 | 169 | 3.5 | 8.7 | 0.00 | 0.00 | 0.00 | 41 | 1010.9 |
| 20260502193013 | 71 | 169 | 4.3 | 8.7 | 0.00 | 0.00 | 0.00 | 40 | 1011.0 |
| 20260502192514 | 72 | 186 | 3.5 | 8.7 | 0.00 | 0.00 | 0.00 | 37 | 1011.0 |
| 20260502192015 | 72 | 186 | 2.6 | 8.7 | 0.00 | 0.00 | 0.00 | 38 | 1010.9 |
| 20260502190501 | 72 | 137 | 2.6 | 10.4 | 0.00 | 0.00 | 0.00 | 39 | 1010.9 |
| 20260502185957 | 71 | 154 | 3.5 | 10.4 | 0.00 | 0.00 | 0.00 | 36 | 1011.1 |
| 20260502185459 | 71 | 172 | 3.5 | 9.6 | 0.00 | 0.00 | 0.00 | 35 | 1011.2 |
| 20260502184955 | 71 | 161 | 2.6 | 6.1 | 0.00 | 0.00 | 0.00 | 38 | 1011.2 |
| 20260502184455 | 71 | 157 | 3.5 | 7.8 | 0.00 | 0.00 | 0.00 | 34 | 1011.3 |
| 20260502183958 | 71 | 186 | 2.6 | 8.7 | 0.00 | 0.00 | 0.00 | 40 | 1011.3 |
| 20260502183455 | 70 | 219 | 1.7 | 8.7 | 0.00 | 0.00 | 0.00 | 41 | 1011.3 |
| 20260502183000 | 70 | 146 | 1.7 | 7.8 | 0.00 | 0.00 | 0.00 | 38 | 1011.4 |
| 20260502182445 | 70 | 172 | 2.6 | 8.7 | 0.00 | 0.00 | 0.00 | 39 | 1011.4 |
| 20260502181947 | 70 | 180 | 2.6 | 8.7 | 0.00 | 0.00 | 0.00 | 42 | 1011.4 |
| 20260502180948 | 69 | 126 | 2.6 | 6.1 | 0.00 | 0.00 | 0.00 | 43 | 1011.4 |
| 20260502180434 | 69 | 134 | 1.7 | 6.1 | 0.00 | 0.00 | 0.00 | 44 | 1011.4 |
| 20260502170259 | 65 | 186 | 1.7 | 5.2 | 0.00 | 0.00 | 0.00 | 48 | 1011.7 |
| 20260502164219 | 64 | 155 | 0.0 | 2.6 | 0.00 | 0.00 | 0.00 | 51 | 1011.6 |
| 20260502163710 | 64 | 155 | 0.0 | 2.6 | 0.00 | 0.00 | 0.00 | 51 | 1011.7 |
| 20260502163207 | 63 | 155 | 0.0 | 0.9 | 0.00 | 0.00 | 0.00 | 51 | 1011.7 |
| 20260502162708 | 63 | 155 | 0.0 | 3.5 | 0.00 | 0.00 | 0.00 | 51 | 1011.6 |
| 20260502162207 | 62 | 155 | 0.9 | 3.5 | 0.00 | 0.00 | 0.00 | 50 | 1011.7 |
| 20260502161637 | 62 | 155 | 0.0 | 4.3 | 0.00 | 0.00 | 0.00 | 52 | 1011.7 |
| 20260502160611 | 62 | 155 | 0.9 | 5.2 | 0.00 | 0.00 | 0.00 | 51 | 1011.7 |
| 20260502160113 | 61 | 149 | 1.7 | 6.1 | 0.00 | 0.00 | 0.00 | 51 | 1011.7 |
| 20260502151524 | 59 | 103 | 1.7 | 4.3 | 0.00 | 0.00 | 0.00 | 56 | 1011.4 |
| 20260502151026 | 59 | 107 | 0.9 | 4.3 | 0.00 | 0.00 | 0.00 | 53 | 1011.4 |
| 20260502150523 | 58 | 108 | 0.9 | 4.3 | 0.00 | 0.00 | 0.00 | 54 | 1011.4 |
| 20260502130650 | 56 | 86 | 0.0 | 2.6 | 0.00 | 0.00 | 0.00 | 49 | 1011.0 |
| 20260502130145 | 55 | 86 | 0.0 | 1.7 | 0.00 | 0.00 | 0.00 | 52 | 1011.0 |
| 20260502123101 | 57 | 87 | 0.0 | 3.5 | 0.00 | 0.00 | 0.00 | 49 | 1011.0 |
| 20260502122557 | 57 | 86 | 0.0 | 0.9 | 0.00 | 0.00 | 0.00 | 48 | 1011.0 |
| 20260502122044 | 57 | 86 | 0.0 | 0.9 | 0.00 | 0.00 | 0.00 | 48 | 1011.0 |
| 20260502121542 | 57 | 86 | 0.0 | 0.9 | 0.00 | 0.00 | 0.00 | 48 | 1011.0 |
| 20260502114907 | 58 | 84 | 0.0 | 1.7 | 0.00 | 0.00 | 0.00 | 47 | 1011.1 |
| 20260502114359 | 58 | 84 | 0.0 | 0.9 | 0.00 | 0.00 | 0.00 | 48 | 1011.1 |
| 20260502113852 | 58 | 84 | 0.0 | 0.9 | 0.00 | 0.00 | 0.00 | 48 | 1011.2 |
| 20260502113345 | 58 | 85 | 0.9 | 3.5 | 0.00 | 0.00 | 0.00 | 49 | 1011.2 |
| 20260502112340 | 58 | 77 | 0.0 | 2.6 | 0.00 | 0.00 | 0.00 | 50 | 1011.1 |
| 20260502111834 | 58 | 76 | 0.0 | 0.9 | 0.00 | 0.00 | 0.00 | 50 | 1011.2 |
| 20260502111319 | 58 | 76 | 0.0 | 3.5 | 0.00 | 0.00 | 0.00 | 52 | 1011.2 |
| 20260502110314 | 58 | 74 | 0.0 | 0.9 | 0.00 | 0.00 | 0.00 | 51 | 1011.1 |
| 20260502105807 | 59 | 73 | 0.0 | 0.0 | 0.00 | 0.00 | 0.00 | 50 | 1011.1 |
| 20260502104743 | 59 | 73 | 0.0 | 3.5 | 0.00 | 0.00 | 0.00 | 47 | 1011.1 |
| 20260502104224 | 59 | 57 | 0.0 | 1.7 | 0.00 | 0.00 | 0.00 | 48 | 1011.1 |
| 20260502103722 | 59 | 57 | 0.0 | 0.0 | 0.00 | 0.00 | 0.00 | 49 | 1011.1 |
| 20260502103213 | 59 | 57 | 0.0 | 1.7 | 0.00 | 0.00 | 0.00 | 49 | 1011.1 |
| 20260502102646 | 59 | 57 | 0.0 | 3.5 | 0.00 | 0.00 | 0.00 | 49 | 1011.0 |
| 20260502102144 | 59 | 56 | 0.0 | 3.5 | 0.00 | 0.00 | 0.00 | 48 | 1011.1 |
| 20260502101059 | 59 | 53 | 0.0 | 2.6 | 0.00 | 0.00 | 0.00 | 48 | 1011.1 |
| 20260502091358 | 59 | 348 | 0.0 | 0.0 | 0.00 | 0.00 | 0.00 | 44 | 1011.3 |
| 20260502090903 | 59 | 348 | 0.0 | 0.0 | 0.00 | 0.00 | 0.00 | 45 | 1011.3 |
| 20260502090330 | 59 | 348 | 0.0 | 0.0 | 0.00 | 0.00 | 0.00 | 46 | 1011.4 |
| 20260502071333 | 60 | 327 | 0.0 | 0.0 | 0.00 | 0.00 | 0.00 | 45 | 1011.8 |
| 20260502070820 | 60 | 327 | 0.0 | 0.0 | 0.00 | 0.00 | 0.00 | 45 | 1011.8 |